Theta_e
287 287 287 287 287 287 287 287 288 288 287 287 287 287 287 287 287 286 286 286 286 286 285 285 285 285 285 284 284 283 283 282 282 281 281 280 280 280 280 279 279 278 278 278 278 278 278 278 278 278 278 278 277 277 277 277 277 277 277 277 277 278
288 288 287 287 287 286 286 286 287 287 287 287 287 287 286 285 285 286 286 286 286 285 285 284 285 284 284 283 283 282 282 282 281 281 280 280 280 280 279 279 278 278 277 277 277 277 277 277 277 277 277 277 277 276 277 276 276 276 276 276 277 278
288 287 287 287 285 284 284 285 286 287 287 286 286 286 286 285 286 286 286 285 285 284 284 284 284 283 283 282 282 282 282 281 281 281 280 280 280 279 279 278 278 278 277 277 277 277 277 277 277 277 277 276 276 276 275 275 275 275 275 275 275 275
288 286 284 283 284 285 285 286 286 286 286 287 287 286 286 286 286 285 286 285 285 284 284 283 283 282 282 282 281 282 281 281 281 280 279 279 279 279 278 278 278 277 277 277 277 277 277 277 276 276 276 276 275 275 275 275 274 274 273 273 273 273
288 288 288 287 286 286 285 285 286 286 287 287 286 286 286 286 286 286 285 284 284 283 283 282 282 281 281 281 281 281 280 280 280 280 279 279 278 278 278 278 277 277 277 277 276 276 276 276 276 275 275 275 274 274 273 274 273 272 272 272 272 272
285 285 285 286 286 285 285 285 286 286 286 287 286 286 286 286 285 285 284 283 283 282 282 281 281 280 280 280 280 280 279 279 279 279 279 278 278 278 277 278 277 277 277 276 276 276 275 275 275 275 274 274 274 273 273 273 272 272 272 271 271 271
285 286 287 287 287 287 286 286 286 286 286 286 286 286 286 286 285 284 283 283 282 281 281 281 281 280 280 280 280 279 279 278 278 278 278 278 277 277 277 277 277 277 276 276 275 275 275 275 274 274 273 273 273 273 273 272 272 272 272 271 271 272
289 287 287 288 288 287 287 286 286 286 286 286 287 286 285 285 284 284 283 283 282 281 281 281 280 280 280 280 279 279 278 278 278 278 278 278 277 277 277 276 276 276 276 275 275 275 274 274 273 273 273 272 272 272 272 272 272 271 271 271 271 270
289 289 289 289 289 288 288 287 286 286 286 286 286 286 286 285 284 283 283 282 282 282 281 281 281 280 280 280 279 279 278 278 278 278 277 277 277 276 276 276 275 275 275 274 274 274 273 273 273 272 272 272 272 272 271 271 271 271 270 270 270 270
291 290 290 289 288 288 287 287 287 287 286 286 286 286 285 285 284 283 283 282 282 282 281 281 281 280 280 279 278 278 278 278 278 277 277 277 276 276 275 275 274 274 274 273 273 273 272 272 271 271 271 271 271 271 271 271 270 270 270 270 270 270
292 291 290 289 287 286 286 286 286 286 286 286 286 285 285 285 284 283 283 282 282 282 281 281 280 280 279 278 278 278 278 277 277 277 276 276 275 275 275 274 273 273 272 272 272 271 271 271 271 271 271 270 270 271 270 270 270 270 270 270 270 270
293 292 290 289 287 287 286 286 285 285 285 286 285 285 285 284 283 283 282 282 282 281 280 280 279 279 278 278 277 277 277 277 276 275 275 275 274 273 273 272 272 272 271 271 270 270 271 271 271 273 275 274 271 270 270 270 270 270 270 270 270 270
293 292 290 288 288 287 287 287 286 286 286 286 285 285 284 284 283 283 282 282 282 281 280 279 279 278 278 278 277 277 276 276 275 274 274 272 271 271 272 272 271 271 271 271 270 270 270 270 271 275 276 277 276 271 270 270 270 270 270 270 270 270
293 292 291 289 289 288 287 287 286 285 285 285 285 285 284 283 283 282 282 282 281 280 280 279 278 277 277 277 277 276 275 274 273 273 272 271 271 271 271 271 271 271 271 271 271 270 270 270 273 276 277 278 278 275 271 271 270 271 271 271 271 272
293 293 293 292 291 289 288 288 286 285 285 285 285 284 282 283 283 282 281 281 280 279 279 278 277 277 276 276 276 275 273 273 273 272 271 271 272 271 271 271 270 270 270 270 270 270 270 270 275 277 278 278 278 279 275 272 272 272 272 272 272 272
294 293 293 293 293 292 291 288 287 287 286 285 283 282 282 282 282 281 280 280 279 279 278 277 277 277 276 275 274 273 272 272 272 271 271 271 270 270 270 270 270 270 270 270 270 270 270 270 275 277 278 278 278 279 278 275 274 273 273 273 273 273
292 292 292 292 292 291 289 287 287 286 283 283 282 282 281 281 281 280 280 279 279 278 278 277 276 276 275 274 273 272 272 272 271 270 270 269 269 269 269 269 269 269 270 270 270 270 270 270 275 277 278 278 278 278 278 275 274 274 274 273 272 272
292 292 293 293 290 289 288 288 286 284 284 283 283 282 281 281 280 280 279 279 278 278 277 277 276 275 274 273 272 271 272 271 270 269 269 269 269 269 269 269 269 269 269 270 270 270 269 270 275 276 277 277 278 278 276 275 274 272 272 271 272 272
293 293 292 290 290 288 286 285 284 284 282 281 281 281 280 280 279 279 279 278 278 277 277 277 275 274 272 272 271 271 271 270 269 269 269 268 269 268 268 268 268 269 269 269 269 269 268 269 274 276 276 276 277 277 274 273 272 272 271 272 272 272
291 290 290 290 288 287 285 283 283 282 281 281 280 280 279 279 279 279 278 278 278 277 276 276 275 273 272 271 271 270 270 270 269 269 269 268 267 267 267 267 267 268 269 269 268 269 268 268 272 275 275 276 276 276 273 272 272 271 271 271 272 273
286 286 285 285 285 281 281 281 282 281 281 280 279 279 279 279 279 278 278 278 277 276 276 275 274 273 271 271 271 270 269 269 268 268 268 268 267 267 267 267 267 267 268 268 268 270 268 267 270 274 274 275 276 275 273 272 271 271 271 271 271 272
284 284 282 282 280 278 279 279 280 280 280 279 278 278 278 278 279 279 278 277 276 275 275 274 273 272 271 271 270 270 269 269 267 267 267 267 267 267 266 266 266 266 266 267 267 269 268 267 267 270 274 275 276 276 273 272 271 270 270 271 271 271
283 283 283 281 279 278 277 278 279 278 277 277 277 278 279 279 277 277 276 275 274 274 274 273 273 271 271 271 270 269 268 268 267 267 266 266 266 266 266 265 265 265 266 267 267 267 268 268 268 269 273 274 275 276 275 272 271 271 271 271 271 272
287 282 279 278 278 278 277 278 278 276 276 275 277 278 276 276 275 275 274 274 274 273 272 272 272 271 270 270 269 268 267 267 267 266 266 266 266 265 265 265 265 265 265 266 266 266 267 269 270 268 272 274 275 275 276 272 272 273 272 272 272 272
286 284 279 277 276 277 278 278 278 276 276 276 278 275 275 274 274 274 273 272 272 271 271 270 270 270 269 268 268 267 266 266 265 265 265 265 265 265 264 264 265 265 265 265 266 267 267 268 270 271 270 273 274 275 275 275 274 276 274 272 271 271
283 282 278 275 276 276 278 278 279 277 276 278 275 274 273 274 273 273 272 271 271 270 270 269 269 268 268 267 267 266 265 265 264 264 264 265 264 264 264 264 264 265 265 265 265 266 267 268 269 272 272 271 273 274 275 275 276 276 274 273 272 272
285 284 279 275 275 276 277 278 279 278 277 277 274 275 274 273 272 272 271 270 270 269 269 268 268 267 266 266 266 265 265 264 264 264 264 265 265 264 264 264 265 265 265 265 265 266 267 268 268 268 271 272 273 274 275 275 275 275 275 272 271 271
279 278 280 277 273 275 276 277 278 279 280 277 275 275 274 273 272 271 270 270 269 269 268 267 266 266 266 266 266 266 265 264 264 264 264 265 264 264 264 264 265 265 265 265 266 266 267 267 267 267 268 271 272 273 274 274 274 273 273 273 272 272
283 280 278 279 276 274 275 275 277 279 277 274 275 274 272 271 271 270 270 269 269 268 267 267 266 265 265 265 265 265 265 265 265 265 264 264 264 265 265 265 265 265 265 265 266 266 266 266 267 267 268 268 269 270 271 272 272 272 272 271 270 270
283 282 281 280 281 277 276 276 277 277 275 273 273 272 271 271 271 271 270 269 268 266 267 266 265 265 265 265 265 264 264 264 265 265 265 265 265 265 265 265 265 265 266 265 266 266 265 266 266 267 267 268 269 269 271 271 271 271 269 268 269 267
285 284 283 283 284 281 277 277 277 276 276 274 272 271 271 271 271 270 269 268 267 266 266 266 265 265 265 265 264 265 265 264 264 265 266 268 268 268 267 266 266 267 267 267 266 265 265 265 265 266 270 269 271 271 271 271 270 269 269 270 271 264
284 284 284 285 285 282 280 279 278 276 276 274 273 272 271 270 270 269 268 267 266 266 265 265 265 265 265 264 264 263 264 267 270 268 266 266 270 271 272 271 268 268 267 267 267 267 265 265 266 272 274 274 274 274 274 273 272 272 271 271 270 264
284 283 283 283 283 281 280 279 278 276 274 273 273 272 272 270 269 269 268 267 266 265 265 265 265 265 265 264 264 264 264 265 268 271 271 271 272 273 273 273 273 273 272 268 266 269 271 272 273 274 275 274 274 274 273 273 272 272 271 270 264 257
283 283 283 283 283 281 280 279 277 275 274 273 272 272 271 270 270 268 268 267 266 265 265 265 264 264 264 264 264 264 265 265 265 267 272 273 274 275 275 275 274 274 273 272 271 270 270 273 274 275 274 274 273 273 273 272 272 271 270 268 266 255
279 280 281 282 282 281 279 278 278 276 273 272 271 271 271 270 270 269 268 266 266 265 265 264 264 264 264 264 264 264 265 265 265 265 267 271 275 276 275 275 275 274 274 274 273 273 272 273 274 274 274 273 273 272 272 272 271 270 269 267 257 253
274 274 275 276 278 280 279 278 278 276 273 272 271 271 271 271 270 270 268 266 266 265 264 264 264 264 264 265 265 265 266 266 267 267 268 268 269 271 273 275 275 275 274 274 274 274 274 274 274 274 273 273 272 271 271 270 268 269 268 263 255 254
272 272 273 274 275 276 278 278 278 276 273 273 272 272 272 272 271 270 268 266 266 265 265 265 265 265 265 265 265 266 266 266 267 268 268 268 268 268 267 269 271 274 275 272 273 274 274 274 274 273 272 272 271 270 269 267 259 257 255 255 254 255
270 272 273 274 275 276 277 278 279 275 273 272 272 272 272 272 271 270 269 267 266 266 265 265 265 265 265 265 265 266 267 267 267 267 268 268 268 268 267 268 269 271 274 274 274 275 275 274 273 272 272 270 270 269 267 257 254 253 253 253 252 252
Wind_Speed
10 11 14 13 11 11 12 11 11 10 11 13 15 18 20 17 13 12 12 14 13 14 16 16 14 13 12 10 10 10 12 13 12 12 11 10 10 11 11 11 11 10 9 9 8 7 7 6 6 6 6 5 5 3 3 2 2 3 4 3 3 4
11 13 14 14 16 15 12 11 9 12 14 13 14 13 9 9 13 15 16 16 14 12 11 12 13 11 12 12 12 13 13 13 12 12 12 13 11 11 12 12 12 11 11 9 9 8 7 7 6 6 6 5 5 4 4 2 2 3 4 4 3 3
11 11 9 8 5 5 6 9 14 15 10 11 13 16 16 16 16 14 15 12 13 13 14 14 12 12 10 10 12 12 11 10 11 12 11 11 12 12 13 12 12 12 11 10 9 9 8 7 7 6 6 5 4 4 3 3 3 3 4 3 3 2
10 7 5 5 6 8 10 12 9 10 14 17 15 12 12 15 16 16 17 14 13 14 13 11 9 9 8 10 10 12 11 11 11 11 11 14 12 13 13 13 11 11 11 10 9 9 8 7 7 7 6 6 5 4 4 4 4 4 3 2 3 3
12 13 13 14 15 13 11 10 13 16 16 13 11 14 17 18 18 14 11 11 12 14 11 9 10 10 9 10 9 10 9 9 8 9 13 12 11 10 12 12 12 12 11 10 10 9 8 8 8 7 7 6 6 5 4 4 4 4 3 3 3 3
3 4 7 10 10 12 14 15 15 14 12 14 15 17 18 14 12 11 11 11 11 10 10 11 10 10 11 12 10 10 8 7 7 7 9 10 10 12 9 10 11 12 12 11 11 10 9 9 8 7 7 7 6 6 6 5 4 4 3 4 3 3
8 11 12 12 13 13 12 13 14 14 15 13 14 16 16 12 9 10 11 11 12 11 13 12 12 13 13 13 11 12 10 9 8 7 9 9 10 10 10 9 9 11 12 12 12 11 10 10 9 8 7 6 6 6 6 6 4 4 3 3 3 4
11 10 10 11 12 12 13 14 15 15 14 15 16 15 11 13 12 12 12 12 13 13 14 14 13 15 15 14 13 13 12 11 11 10 8 9 11 10 10 11 10 10 11 10 11 10 10 9 9 9 8 8 7 6 6 5 4 4 4 3 3 3
9 12 13 13 14 14 14 15 15 15 15 16 15 15 15 14 13 14 14 14 15 13 14 15 16 14 14 14 12 11 11 12 12 11 11 10 10 11 11 10 10 8 10 10 10 10 10 9 8 8 7 7 6 6 5 5 4 4 3 4 5 5
11 11 13 13 13 14 13 12 14 16 17 18 16 15 14 12 14 15 16 15 14 15 16 16 13 13 13 11 11 11 12 12 12 12 10 10 11 11 11 12 11 9 8 9 9 8 8 8 7 7 7 6 6 5 5 5 5 5 5 5 6 6
11 13 13 13 12 12 14 13 13 12 11 12 11 12 15 14 14 14 15 14 15 16 14 11 10 10 11 12 12 12 13 13 12 11 10 10 9 8 9 9 10 10 9 8 8 8 7 8 7 6 7 7 6 6 6 6 6 6 6 6 6 7
14 14 13 13 13 15 14 14 13 14 16 16 15 15 14 12 14 15 15 15 16 13 11 12 11 11 11 12 13 13 12 12 11 11 10 10 9 9 9 9 9 9 10 10 9 8 7 7 6 9 15 11 7 7 6 5 6 6 7 6 7 7
14 14 13 14 15 16 16 16 16 15 16 14 13 15 13 14 14 14 15 16 13 12 11 12 12 12 13 13 11 11 12 12 11 11 11 10 10 11 11 11 11 10 9 10 10 10 7 6 6 15 15 15 16 9 7 7 6 7 7 8 8 7
13 13 14 15 16 16 15 14 13 11 13 13 14 13 11 13 13 15 15 13 11 12 13 12 12 12 12 12 13 13 12 12 12 12 12 12 12 11 10 12 10 9 9 8 8 8 7 7 11 16 16 16 16 14 8 7 6 7 8 8 8 7
15 16 16 15 15 14 15 15 12 13 14 14 15 9 12 14 14 14 12 12 13 13 13 12 13 13 13 14 13 13 13 15 15 14 14 15 13 11 12 9 9 7 7 8 10 8 8 8 14 16 16 16 16 17 14 8 9 8 8 7 7 7
12 13 14 15 15 15 16 13 15 17 14 11 7 12 13 13 12 12 12 12 12 13 13 13 14 14 14 13 13 13 14 15 15 13 11 11 11 13 11 10 12 9 9 9 9 9 8 8 13 16 16 16 16 16 13 6 7 6 7 8 8 7
12 11 11 12 13 11 8 7 11 7 7 11 13 13 13 13 13 11 12 13 13 12 13 14 14 14 13 13 13 14 14 14 13 14 13 13 14 14 13 12 12 9 9 9 8 8 7 6 13 15 15 15 15 15 12 5 6 6 6 6 5 6
14 15 15 13 8 8 8 11 9 9 10 9 13 12 12 12 12 12 11 12 13 14 14 15 14 14 14 15 15 16 16 15 15 16 13 12 10 9 8 8 8 11 11 10 9 9 6 6 14 14 14 14 14 15 7 5 5 5 4 3 6 7
13 14 11 7 8 8 10 7 8 9 8 10 10 12 11 12 13 13 14 14 14 14 14 15 15 15 15 16 17 17 16 16 14 13 12 13 13 13 12 12 12 10 10 10 11 9 6 6 12 15 14 14 14 11 4 5 3 4 5 7 7 7
8 8 6 8 8 8 5 7 9 10 9 9 9 11 11 12 14 14 14 15 14 15 14 14 15 16 16 16 18 17 15 13 12 13 12 14 14 13 13 11 10 9 10 10 10 8 8 7 10 15 13 13 13 10 5 4 5 5 5 5 7 6
5 4 3 3 3 2 3 5 7 8 8 8 10 10 11 13 13 13 15 15 13 14 14 14 15 16 17 17 16 15 16 16 15 12 10 9 10 11 10 9 10 9 8 5 7 14 9 6 9 14 14 14 14 11 6 6 4 5 6 4 5 7
8 7 4 3 1 2 5 5 6 6 8 8 8 11 12 14 17 15 10 10 12 12 12 13 15 15 16 16 14 13 13 11 11 12 12 9 8 8 8 9 9 10 8 7 6 8 9 8 6 10 15 14 14 14 7 5 6 5 5 6 5 6
7 7 6 3 2 4 4 4 5 5 4 6 8 12 16 10 5 7 9 9 10 11 12 11 13 15 13 12 13 12 11 11 12 12 11 11 9 8 8 9 8 8 8 5 6 5 6 7 7 9 15 14 14 14 11 5 5 5 6 6 6 5
8 6 4 2 1 3 4 5 6 5 5 5 11 12 2 5 7 8 8 10 10 10 10 11 10 10 11 10 11 12 11 8 9 11 11 9 10 11 10 9 9 8 6 6 6 6 5 8 11 6 12 13 13 12 12 7 6 7 6 6 4 3
8 7 3 1 3 4 4 6 7 7 6 11 12 5 6 7 8 9 9 10 11 11 11 10 12 12 10 11 11 13 12 10 10 10 10 11 11 12 12 10 8 8 8 7 6 6 7 7 9 12 8 12 12 12 12 11 9 9 4 2 2 4
6 7 5 4 5 6 7 9 8 8 10 14 5 6 7 9 9 11 11 10 11 11 11 11 12 11 10 12 12 12 13 12 12 11 11 11 12 12 11 8 8 8 9 9 8 7 7 7 6 10 13 10 12 11 11 10 8 8 3 3 3 3
10 9 7 5 6 6 7 7 9 9 11 7 8 9 10 10 11 12 12 12 12 12 11 11 11 11 11 12 13 14 13 13 14 13 11 12 10 9 8 10 9 9 9 9 9 8 8 7 6 5 10 13 11 12 10 8 7 6 7 2 0 2
8 8 9 9 5 6 5 6 7 9 11 6 9 9 10 11 12 12 13 12 11 12 12 13 11 11 12 12 11 12 12 14 14 13 12 10 8 7 8 10 9 7 8 8 8 8 8 6 6 6 6 8 9 9 9 7 6 5 5 6 3 8
9 9 9 10 6 5 6 7 8 10 3 8 8 9 10 11 12 12 12 13 12 12 13 15 12 11 11 12 10 10 10 11 12 13 13 13 10 9 8 8 10 10 9 8 9 8 8 7 7 6 6 5 5 3 4 4 3 4 5 0 3 4
10 11 10 11 11 7 8 8 10 9 5 5 8 9 10 12 13 14 14 15 13 12 13 13 15 16 12 13 13 13 12 12 12 15 17 17 15 16 14 10 10 11 13 12 11 10 8 7 7 7 7 7 6 5 5 4 4 4 4 1 3 3
12 11 12 13 10 8 8 10 10 7 8 8 9 10 12 12 12 11 13 13 12 13 13 13 14 14 13 13 12 11 12 13 14 13 9 9 11 14 17 15 13 13 12 12 13 13 10 8 9 8 9 8 11 8 6 5 4 4 3 5 4 5
12 13 14 14 11 9 9 10 9 8 8 8 9 11 12 11 10 11 12 12 13 13 14 14 14 15 15 15 14 13 10 11 16 11 11 11 12 10 10 14 14 14 13 12 9 10 12 12 9 14 18 15 13 12 11 10 8 7 7 4 5 6
15 13 15 15 12 10 11 11 9 8 9 9 10 12 12 11 11 11 10 11 12 15 16 15 15 15 15 15 15 14 14 12 13 19 14 11 15 16 17 14 15 21 18 14 12 10 13 15 17 16 15 14 12 10 10 9 8 7 6 5 6 3
17 15 15 14 12 11 11 11 10 9 10 10 11 12 12 13 13 13 13 13 11 11 11 11 12 12 12 11 11 13 13 14 14 11 14 17 17 19 19 19 22 22 21 20 17 14 11 15 15 15 15 13 12 11 11 10 9 8 8 6 6 3
17 17 17 16 13 10 10 11 12 9 9 10 12 12 13 14 13 12 10 10 10 11 12 11 12 13 13 15 15 13 13 14 15 15 13 14 19 20 20 21 22 23 22 22 20 19 14 13 14 16 15 14 12 12 11 11 10 9 9 10 4 4
15 17 19 19 20 17 12 13 13 11 11 12 13 14 15 15 16 14 12 13 14 14 13 12 12 13 14 13 14 14 14 14 14 15 16 15 13 14 16 19 21 22 22 21 21 18 17 17 17 17 15 14 13 13 13 11 8 11 10 8 3 1
19 19 18 19 17 17 16 16 15 11 11 12 14 15 15 15 15 12 12 16 14 13 14 13 13 13 13 13 14 14 13 13 13 15 17 18 17 17 16 12 13 17 20 16 16 18 19 18 18 17 15 14 13 14 14 12 6 5 4 3 1 0
19 18 17 15 14 16 18 18 14 6 10 12 14 15 16 15 15 13 11 12 15 13 12 13 13 14 14 15 14 13 13 12 13 14 14 13 14 15 14 11 9 10 16 22 18 20 19 18 17 15 15 13 13 13 12 6 5 5 2 0 0 1
Wind_Direction
206 203 203 202 202 203 206 203 197 199 202 201 199 201 204 198 192 195 200 200 204 203 203 202 201 199 195 189 180 180 186 185 180 176 170 155 160 154 153 155 155 154 155 154 155 156 157 153 151 143 141 142 148 151 170 180 184 230 252 255 251 255
209 204 203 197 199 198 198 195 196 204 205 198 204 209 201 192 197 198 202 205 204 204 202 205 204 199 194 188 180 185 191 187 177 169 166 168 156 160 157 158 158 156 155 157 154 156 154 154 150 145 141 140 150 156 163 181 188 232 245 259 256 259
216 215 214 215 203 194 185 191 201 206 198 209 207 201 199 200 204 199 208 200 204 202 203 203 197 198 192 185 188 187 188 185 181 176 165 152 167 157 159 160 160 158 155 154 157 158 160 155 152 148 143 148 152 152 163 178 191 221 241 240 262 265
220 219 206 196 190 198 199 202 198 199 203 206 204 204 206 206 205 202 204 198 200 202 203 198 195 191 188 191 190 191 185 183 183 172 161 168 164 163 160 160 158 156 154 154 156 156 156 155 150 148 148 155 157 164 160 177 196 217 234 243 260 278
210 202 199 196 198 203 201 194 197 204 208 205 204 201 210 207 208 203 197 195 198 202 196 186 189 183 184 189 193 195 187 182 178 174 170 165 161 164 162 160 157 156 153 152 154 153 156 155 152 151 151 158 160 165 171 173 186 204 218 237 243 255
239 199 202 207 206 198 198 200 205 208 202 201 202 208 213 208 204 194 192 195 198 192 185 190 185 178 183 189 188 189 183 174 175 178 176 165 159 161 161 158 156 153 154 152 154 156 154 154 152 154 158 160 159 166 174 174 176 178 180 192 210 231
197 207 208 208 209 210 206 203 203 201 207 201 203 212 211 204 195 188 193 193 192 188 190 189 183 185 185 188 182 184 172 171 168 177 178 166 164 159 154 158 157 154 155 158 159 157 157 157 155 155 156 156 159 167 157 159 170 184 191 202 209 240
210 210 209 212 215 210 207 207 204 204 206 207 207 209 196 200 189 194 189 192 190 193 192 191 188 190 189 186 184 178 171 167 171 172 175 174 165 158 160 158 163 163 160 156 156 155 154 153 154 159 161 160 159 160 148 150 171 183 191 205 213 212
231 218 214 214 211 206 208 205 205 205 205 208 204 203 197 192 186 191 191 192 195 191 194 192 195 190 187 186 180 169 168 170 169 170 173 174 167 163 161 163 159 161 154 153 151 155 154 152 153 155 156 156 157 150 156 161 171 186 189 208 219 228
231 227 221 216 217 217 215 211 208 204 202 205 203 200 195 191 188 190 193 191 194 196 196 196 189 187 185 177 168 169 170 167 169 172 168 165 170 169 165 162 159 154 150 151 150 147 144 145 146 149 153 150 145 151 160 169 179 194 203 208 221 227
237 232 227 222 221 215 214 212 214 213 216 219 208 197 201 192 186 189 191 191 196 200 194 183 182 179 174 171 168 170 171 170 168 164 164 166 165 164 160 153 149 146 141 140 141 140 142 148 157 158 158 159 161 160 172 176 179 196 205 215 222 229
232 232 225 222 213 213 213 214 214 211 209 210 201 198 201 174 190 188 189 193 198 190 180 180 177 176 171 171 174 173 167 164 162 160 160 162 159 155 153 148 148 148 147 144 141 142 150 160 160 177 179 177 167 165 165 171 182 197 207 214 228 235
230 231 224 221 216 214 212 211 211 210 212 210 201 201 191 183 187 189 189 196 188 177 173 174 178 170 176 175 168 166 164 162 158 158 158 157 158 158 157 153 152 154 149 150 154 157 160 166 174 184 189 188 184 175 175 176 187 195 211 221 223 227
231 230 224 221 219 216 214 214 215 207 213 206 203 199 177 182 187 189 192 188 174 175 175 176 170 172 174 169 171 166 163 157 157 161 162 160 161 163 161 163 158 145 146 146 149 158 165 166 183 187 190 193 193 180 172 176 184 198 206 214 224 231
227 227 224 224 222 218 218 212 203 204 209 202 204 166 173 185 188 187 185 179 176 177 174 171 172 173 172 175 168 164 162 163 164 166 166 171 168 160 158 143 137 146 143 151 159 164 170 171 187 187 189 192 197 195 181 181 188 194 204 216 220 233
229 226 224 225 225 218 219 203 198 209 205 190 154 169 183 180 185 183 182 175 178 176 174 171 172 174 174 168 165 164 166 168 173 169 164 155 155 157 157 160 151 158 161 166 165 162 169 168 186 186 189 191 195 199 201 171 183 193 210 224 236 229
224 228 234 238 233 228 218 207 209 197 150 161 173 177 172 182 178 179 177 178 178 173 174 173 172 171 168 166 164 165 168 171 165 165 166 163 166 167 169 165 166 168 163 165 166 163 167 171 184 186 190 192 196 201 203 178 191 201 200 202 224 260
217 218 225 229 219 221 203 209 189 174 187 163 170 171 175 173 176 178 173 178 180 179 176 172 172 169 167 166 167 169 172 173 170 168 166 162 162 162 157 166 165 164 168 168 164 160 153 165 183 186 188 193 196 198 199 184 186 179 200 232 238 235
217 220 224 225 208 204 208 191 165 168 154 165 168 165 168 168 177 181 182 183 180 178 175 174 171 170 169 170 171 175 174 171 170 169 166 165 168 167 171 170 171 169 164 152 158 146 140 159 182 184 187 192 196 199 172 172 175 217 222 221 226 240
299 283 237 222 217 210 180 156 158 155 161 166 160 160 172 176 187 184 182 184 180 177 174 174 172 171 172 173 178 176 173 168 166 170 173 172 170 174 174 165 160 162 165 157 160 157 149 154 181 181 184 190 196 193 167 188 192 202 221 238 240 239
304 302 299 257 227 32 85 122 136 146 165 166 169 170 171 190 189 183 188 186 175 173 173 172 173 174 174 178 178 173 170 172 171 165 166 176 173 171 164 161 157 153 158 143 144 165 156 147 173 180 182 187 192 194 168 179 176 208 230 232 241 242
7 17 22 26 53 101 110 130 144 162 168 174 162 176 191 195 197 192 173 162 168 170 170 173 174 175 176 177 170 172 172 163 159 166 165 167 167 162 158 156 153 150 154 151 155 175 167 164 168 183 183 188 193 193 175 175 188 208 222 237 236 249
9 356 343 352 74 101 115 120 137 171 173 167 177 199 208 195 145 146 164 159 162 169 172 170 174 173 175 173 169 163 161 167 167 162 164 158 155 152 150 147 142 137 142 142 156 171 165 166 163 177 181 186 187 194 192 164 189 203 223 225 241 239
341 353 5 359 79 115 136 142 159 172 171 169 207 218 98 122 148 140 147 162 165 164 166 168 165 164 164 161 157 161 163 162 160 162 157 153 149 151 147 145 144 140 135 136 159 173 177 178 174 172 183 185 189 191 197 179 200 215 214 232 212 255
321 316 286 219 176 168 171 158 170 178 179 202 216 153 147 137 146 152 153 156 161 163 162 161 161 161 160 162 164 160 160 157 157 157 155 151 150 151 150 147 139 137 143 153 172 175 181 184 179 177 182 184 186 192 202 204 210 229 214 196 237 261
273 277 251 203 191 184 179 175 181 187 192 220 178 153 148 155 152 154 156 159 161 158 160 161 159 159 160 161 159 161 158 162 161 158 161 161 158 156 153 149 147 149 153 162 169 176 180 177 170 180 176 182 189 197 201 211 219 228 202 197 208 215
282 279 269 240 211 203 195 191 189 192 211 215 159 167 165 160 159 156 163 162 161 161 157 153 158 159 161 164 163 163 165 164 163 163 169 166 169 159 144 156 159 157 159 160 167 169 171 165 156 171 180 184 192 197 202 207 214 228 245 252 149 259
286 285 279 279 249 234 220 215 198 202 224 159 171 169 166 160 160 165 164 162 160 159 154 152 152 156 162 165 170 171 171 168 170 166 165 170 162 157 151 150 154 147 156 161 160 163 156 152 160 170 185 188 193 195 196 199 209 230 254 255 257 269
289 281 274 276 269 241 241 226 229 233 210 165 173 168 165 166 166 166 164 164 162 156 160 160 161 159 163 168 168 169 172 176 174 168 168 169 165 166 154 150 155 155 162 162 160 148 153 160 171 178 182 179 182 190 197 197 193 240 245 221 289 287
282 274 269 264 263 239 237 230 233 231 203 172 168 167 166 173 175 173 175 170 165 164 165 166 162 162 167 174 171 171 177 187 184 177 177 174 173 168 172 162 159 164 164 162 155 151 152 170 176 188 183 186 178 188 193 174 189 187 113 166 252 126
285 273 267 265 260 243 234 235 233 220 197 183 172 169 174 184 184 177 171 168 164 167 170 167 169 172 171 173 175 181 183 182 186 185 176 179 173 172 166 170 176 173 168 155 153 152 157 167 185 193 190 191 183 182 178 178 150 132 166 226 185 116
281 280 276 271 267 252 244 243 234 215 203 180 177 175 181 181 178 180 180 178 177 171 170 172 173 176 174 173 174 170 174 195 190 184 176 171 183 191 193 176 172 169 159 150 150 156 159 167 174 183 182 187 181 171 166 158 169 182 169 190 90 88
294 283 274 272 268 256 250 246 233 211 198 187 182 183 187 176 182 190 187 184 189 184 181 179 176 176 177 176 171 171 169 163 180 190 189 183 178 178 171 169 158 151 148 141 141 154 155 157 168 175 180 169 161 163 156 153 160 160 148 105 96 61
300 293 283 275 268 258 252 248 239 216 199 190 188 187 188 188 187 193 196 193 190 177 180 179 174 169 168 171 173 172 167 165 158 171 180 175 172 166 161 156 153 148 143 141 141 147 154 161 167 163 158 158 157 152 153 152 149 141 118 97 105 101
313 312 308 303 294 274 258 249 244 220 198 192 190 188 192 196 198 200 194 186 180 180 181 175 174 175 172 172 173 176 175 169 165 158 154 164 162 156 152 151 149 147 145 145 149 154 159 162 161 157 155 154 151 146 146 145 135 128 106 93 73 112
303 297 293 293 296 294 275 253 245 221 200 194 190 193 197 199 200 199 187 183 183 178 181 181 179 177 180 179 177 178 175 172 165 157 153 150 151 150 149 150 148 146 145 149 154 160 162 160 156 153 152 150 145 142 140 130 118 103 83 94 121 132
290 285 283 286 288 288 281 265 252 222 199 193 192 195 201 203 201 199 196 190 182 183 183 179 179 180 177 177 178 179 174 169 166 159 157 156 155 150 147 151 150 151 149 151 156 161 161 158 155 153 151 146 141 133 126 110 92 83 30 34 47 122
286 282 283 281 278 276 275 273 268 217 196 195 193 198 202 204 200 198 191 186 186 183 184 182 182 179 179 177 178 175 170 164 161 161 158 153 148 146 144 140 138 141 152 154 158 159 156 152 151 151 145 137 133 138 131 105 125 111 144 153 260 216